This demonstration page uses our WeatherBlox Daily Observations layout. Learn more.

Left ArrowRight Arrow

Hourly Observations for December 20, 2015

Temp ( °F °C ) Dew Point ( °F °C ) Humidity (%) Winds ( mph kmh ) Pressure ( in mb ) Visibility ( mi km ) Precip ( " mm )
12:58 am 00:58 Clear 37 2.6 32 0.2 84 84 SE 6 9 29.96 1014 10 16 0.00 0.00
1:58 am 01:58 Clear 34 1.3 32 -0.1 91 91 ESE 9 15 29.93 1014 10 16 0.00 0.00
2:58 am 02:58 Clear 37 2.5 33 0.4 86 86 ESE 7 11 29.90 1013 10 16 0.00 0.00
3:58 am 03:58 Clear 36 2.4 32 0.1 85 85 ESE 9 15 29.88 1012 10 16 0.00 0.00
4:58 am 04:58 Clear 37 2.5 32 0.2 85 85 ESE 8 13 29.85 1011 10 16 0.00 0.00
5:58 am 05:58 Clear 35 1.6 32 -0.1 89 89 ESE 6 9 29.84 1011 10 16 0.00 0.00
6:58 am 06:58 Clear 35 1.7 32 -0.1 88 88 E 8 13 29.83 1010 10 16 0.00 0.00
7:58 am 07:58 Sunny 38 3.3 34 0.9 84 84 ESE 6 9 29.83 1010 10 16 0.00 0.00
8:58 am 08:58 Sunny 41 5.2 36 2.1 81 81 ESE 7 11 29.80 1009 10 16 0.00 0.00
9:58 am 09:58 Sunny 43 6.1 37 2.8 80 80 SE 8 13 29.79 1009 10 16 0.00 0.00
10:58 am 10:58 Sunny 45 7.4 38 3.6 77 77 SSE 7 11 29.78 1008 10 16 0.00 0.00
11:58 am 11:58 Sunny 48 9.1 40 4.4 73 73 SSE 12 19 29.74 1007 10 16 0.00 0.00
12:58 pm 12:58 Partly Cloudy 50 10.1 42 5.3 72 72 S 8 13 29.70 1006 10 16 0.00 0.00
1:58 pm 13:58 Cloudy 52 10.9 43 6.1 72 72 S 10 17 29.69 1005 10 16 0.00 0.00
2:58 pm 14:58 Cloudy 53 11.4 44 6.6 73 73 S 7 11 29.68 1005 10 16 0.00 0.00
3:58 pm 15:58 Cloudy 51 10.4 44 6.6 78 78 S 3 6 29.67 1005 10 16 0.00 0.00
4:58 pm 16:58 Cloudy 47 8.2 43 6 86 86 SE 5 7 29.69 1005 10 16 0.00 0.00
5:58 pm 17:58 Cloudy 44 6.9 42 5.5 91 91 E 1 2 29.69 1005 10 16 0.00 0.00
6:58 pm 18:58 Cloudy 48 8.7 41 5 78 78 NW 7 11 29.71 1006 10 16 0.00 0.00
7:58 pm 19:58 Mostly Cloudy 44 6.4 36 2.4 76 76 NNW 10 17 29.74 1007 10 16 0.00 0.00
8:58 pm 20:58 Partly Cloudy 37 2.6 33 0.4 86 86 VRB 7 11 29.74 1007 10 16 0.00 0.00
9:20 pm 21:20 Cloudy 36 2 32 0 87 87 NNW 8 13 29.77 1008 10 16 0.00 0.00
9:55 pm 21:55 Cloudy 32 0 32 0 100 100 NW 8 13 29.77 1008 10 16 0.00 0.00
9:58 pm 21:58 Cloudy 33 0.8 31 -0.8 89 89 NW 12 19 29.76 1008 10 16 0.00 0.00
10:32 pm 22:32 Cloudy 32 0 30 -1 93 93 NW 8 13 29.77 1008 10 16 0.00 0.00
10:47 pm 22:47 Cloudy 32 0 30 -1 93 93 NNW 12 19 29.77 1008 10 16 0.00 0.00
10:58 pm 22:58 Cloudy 33 0.3 29 -1.4 89 89 N 8 13 29.77 1008 10 16 0.00 0.00
11:10 pm 23:10 Cloudy 32 0 30 -1 93 93 NNW 7 11 29.77 1008 10 16 0.00 0.00
11:29 pm 23:29 Cloudy 32 0 30 -1 93 93 NNW 10 17 29.77 1008 10 16 0.00 0.00
11:48 pm 23:48 Cloudy 32 0 30 -1 93 93 NNW 9 15 29.77 1008 9 14 0.00 0.00
11:58 pm 23:58 Cloudy with Mist and Fog 32 -0.2 30 -1.2 93 93 NNW 12 19 29.76 1008 5 8 0.00 0.00

Powered by AerisWeather